EWG7PH ENBR-EDDH

Flight info

Callsign EWG7PH
Flight time 1h 15m
Altitude 37000
Route TUXIL DCT ZOL DCT RAMUD DCT ALASA M852 EKERN T905 BOGMU BOGMU3D
Aircraft A320/M-SDE3FGHIRWY/LB1

Departure

Time 2026-05-01 12:00
Airport Bergen Airport, Flesland (ENBR)

Arrival

Time 2026-05-01 13:15
Airport Hamburg Helmut Schmidt Airport (EDDH)
Time Latitude Longitude Altitude Speed Heading
2026-05-01 11:46 60.28998 5.22721 175 ft 0 kts 182°
2026-05-01 11:50 60.29010 5.22722 175 ft 2 kts 182°
2026-05-01 11:50 60.29027 5.22723 175 ft 2 kts 182°
2026-05-01 11:50 60.29044 5.22727 176 ft 2 kts 228°
2026-05-01 11:51 60.29050 5.22757 176 ft 2 kts 299°
2026-05-01 11:51 60.29042 5.22778 176 ft 0 kts 287°
2026-05-01 11:52 60.29046 5.22755 176 ft 7 kts 286°
2026-05-01 11:52 60.29051 5.22662 176 ft 8 kts 265°
2026-05-01 11:53 60.29044 5.22566 176 ft 6 kts 257°
2026-05-01 11:53 60.29038 5.22491 176 ft 5 kts 261°
2026-05-01 11:53 60.29032 5.22412 176 ft 6 kts 266°
2026-05-01 11:53 60.29078 5.22316 177 ft 11 kts 303°
2026-05-01 11:54 60.29124 5.22209 173 ft 12 kts 351°
2026-05-01 11:54 60.29222 5.22177 168 ft 16 kts 350°
2026-05-01 11:54 60.29336 5.22137 163 ft 18 kts 351°
2026-05-01 11:54 60.29462 5.22095 158 ft 19 kts 350°
2026-05-01 11:55 60.29597 5.22048 153 ft 20 kts 349°
2026-05-01 11:55 60.29737 5.22006 149 ft 21 kts 352°
2026-05-01 11:55 60.29866 5.21961 153 ft 17 kts 354°
2026-05-01 11:55 60.29962 5.21927 156 ft 12 kts 348°
2026-05-01 11:56 60.30026 5.21904 159 ft 7 kts 349°
2026-05-01 11:56 60.30112 5.21877 162 ft 23 kts 352°
2026-05-01 11:56 60.30286 5.21818 170 ft 20 kts 351°
2026-05-01 11:56 60.30397 5.21782 175 ft 13 kts 351°
2026-05-01 11:57 60.30442 5.21694 176 ft 9 kts 270°
2026-05-01 11:57 60.30439 5.21656 176 ft 0 kts 259°
2026-05-01 11:58 60.30436 5.21629 176 ft 9 kts 257°
2026-05-01 11:58 60.30342 5.21477 172 ft 1 kts 169°
2026-05-01 11:59 60.30325 5.21485 171 ft 0 kts 169°
2026-05-01 11:59 60.30318 5.21488 171 ft 13 kts 169°
2026-05-01 11:59 60.29973 5.21604 156 ft 86 kts 171°
2026-05-01 12:00 60.28194 5.22222 644 ft 146 kts 170°
2026-05-01 12:00 60.27177 5.22572 1357 ft 149 kts 173°
2026-05-01 12:00 60.24964 5.23287 2143 ft 182 kts 174°
2026-05-01 12:01 60.23624 5.23716 2475 ft 207 kts 173°
2026-05-01 12:01 60.22123 5.24207 2951 ft 228 kts 173°
2026-05-01 12:01 60.20540 5.24731 3795 ft 233 kts 173°
2026-05-01 12:01 60.18927 5.25270 4660 ft 237 kts 175°
2026-05-01 12:02 60.17283 5.25827 5480 ft 242 kts 175°
2026-05-01 12:02 60.15605 5.26394 6310 ft 247 kts 176°
2026-05-01 12:02 60.13889 5.26967 7080 ft 252 kts 177°
2026-05-01 12:02 60.12142 5.27545 7869 ft 256 kts 178°
2026-05-01 12:03 60.10373 5.28133 8676 ft 260 kts 178°
2026-05-01 12:03 60.08581 5.28719 9491 ft 262 kts 179°
2026-05-01 12:03 60.06766 5.29237 10269 ft 265 kts 180°
2026-05-01 12:03 60.04887 5.29723 10601 ft 282 kts 180°
2026-05-01 12:04 60.02863 5.30219 10752 ft 305 kts 179°
2026-05-01 12:04 60.00709 5.30756 11181 ft 317 kts 179°
2026-05-01 12:04 59.98504 5.31331 11827 ft 322 kts 179°
2026-05-01 12:04 59.96270 5.31932 12527 ft 326 kts 179°
2026-05-01 12:05 59.94004 5.32545 13223 ft 331 kts 179°
2026-05-01 12:05 59.89388 5.33796 14520 ft 339 kts 179°
2026-05-01 12:05 59.87038 5.34429 15121 ft 343 kts 179°
2026-05-01 12:06 59.84654 5.35065 15708 ft 347 kts 179°
2026-05-01 12:06 59.82245 5.35704 16282 ft 352 kts 179°
2026-05-01 12:06 59.79805 5.36346 16858 ft 356 kts 179°
2026-05-01 12:06 59.78171 5.36719 17241 ft 358 kts 180°
2026-05-01 12:07 59.75683 5.37179 17779 ft 361 kts 181°
2026-05-01 12:07 59.73166 5.37567 18337 ft 364 kts 181°
2026-05-01 12:07 59.70621 5.37937 18846 ft 368 kts 181°
2026-05-01 12:07 59.68054 5.38315 19365 ft 371 kts 181°
2026-05-01 12:08 59.65468 5.38709 19893 ft 373 kts 181°
2026-05-01 12:08 59.62874 5.39167 20429 ft 377 kts 180°
2026-05-01 12:08 59.60260 5.39768 20958 ft 380 kts 178°
2026-05-01 12:08 59.57630 5.40460 21486 ft 382 kts 178°
2026-05-01 12:09 59.54989 5.41189 22001 ft 384 kts 178°
2026-05-01 12:09 59.52329 5.41919 22518 ft 387 kts 178°
2026-05-01 12:09 59.49656 5.42634 23018 ft 389 kts 178°
2026-05-01 12:09 59.46960 5.43331 23471 ft 392 kts 178°
2026-05-01 12:10 59.44242 5.44016 23914 ft 394 kts 178°
2026-05-01 12:10 59.38802 5.45414 24697 ft 399 kts 176°
2026-05-01 12:10 59.36053 5.46310 25083 ft 402 kts 175°
2026-05-01 12:11 59.30526 5.48416 25811 ft 407 kts 174°
2026-05-01 12:11 59.27743 5.49512 26170 ft 409 kts 174°
2026-05-01 12:11 59.24948 5.50587 26530 ft 410 kts 174°
2026-05-01 12:12 59.22139 5.51637 26878 ft 412 kts 175°
2026-05-01 12:12 59.19313 5.52666 27201 ft 414 kts 174°
2026-05-01 12:12 59.16479 5.53684 27537 ft 416 kts 175°
2026-05-01 12:12 59.13623 5.54702 27870 ft 417 kts 175°
2026-05-01 12:13 59.10755 5.55719 28199 ft 419 kts 175°
2026-05-01 12:13 59.07875 5.56741 28517 ft 421 kts 175°
2026-05-01 12:13 59.04989 5.57773 28830 ft 423 kts 174°
2026-05-01 12:13 59.02085 5.58817 29138 ft 425 kts 174°
2026-05-01 12:14 58.99173 5.59863 29430 ft 426 kts 174°
2026-05-01 12:14 58.96251 5.60903 29721 ft 428 kts 175°
2026-05-01 12:14 58.93319 5.61939 29999 ft 429 kts 175°
2026-05-01 12:14 58.90376 5.62992 30236 ft 432 kts 173°
2026-05-01 12:15 58.87461 5.64635 30443 ft 440 kts 163°
2026-05-01 12:15 58.84720 5.67179 30648 ft 448 kts 154°
2026-05-01 12:15 58.82039 5.70266 30856 ft 450 kts 154°
2026-05-01 12:15 58.79349 5.73358 31060 ft 451 kts 154°
2026-05-01 12:16 58.76653 5.76446 31330 ft 450 kts 154°
2026-05-01 12:16 58.73964 5.79512 31616 ft 449 kts 154°
2026-05-01 12:16 58.71275 5.82571 31901 ft 448 kts 155°
2026-05-01 12:16 58.68590 5.85619 32193 ft 448 kts 155°
2026-05-01 12:17 58.65911 5.88653 32483 ft 447 kts 155°
2026-05-01 12:17 58.63235 5.91674 32765 ft 446 kts 155°
2026-05-01 12:17 58.60561 5.94682 33055 ft 445 kts 155°
2026-05-01 12:17 58.57891 5.97681 33336 ft 444 kts 155°
2026-05-01 12:18 58.55225 6.00675 33626 ft 444 kts 155°
2026-05-01 12:18 58.52561 6.03668 33906 ft 443 kts 155°
2026-05-01 12:18 58.49941 6.06607 34193 ft 442 kts 155°
2026-05-01 12:18 58.47283 6.09581 34457 ft 442 kts 155°
2026-05-01 12:19 58.44632 6.12538 34693 ft 441 kts 155°
2026-05-01 12:19 58.41978 6.15497 34936 ft 441 kts 155°
2026-05-01 12:19 58.39333 6.18444 35159 ft 440 kts 155°
2026-05-01 12:19 58.36685 6.21386 35270 ft 441 kts 155°
2026-05-01 12:20 58.31377 6.27256 35299 ft 441 kts 154°
2026-05-01 12:20 58.26076 6.33114 35309 ft 440 kts 154°
2026-05-01 12:21 58.20777 6.38940 35308 ft 440 kts 155°
2026-05-01 12:21 58.15473 6.44753 35315 ft 440 kts 155°
2026-05-01 12:22 58.10167 6.50559 35321 ft 440 kts 155°
2026-05-01 12:22 58.04855 6.56340 35320 ft 440 kts 155°
2026-05-01 12:23 57.99583 6.62056 35327 ft 440 kts 155°
2026-05-01 12:23 57.94276 6.67798 35327 ft 440 kts 155°
2026-05-01 12:24 57.88968 6.73522 35314 ft 441 kts 154°
2026-05-01 12:24 57.83632 6.79246 35324 ft 442 kts 154°
2026-05-01 12:25 57.75616 6.87812 35332 ft 442 kts 154°
2026-05-01 12:26 57.70274 6.93491 35334 ft 441 kts 154°
2026-05-01 12:26 57.62260 7.01984 35335 ft 441 kts 154°
2026-05-01 12:27 57.54250 7.10458 35335 ft 441 kts 154°
2026-05-01 12:28 57.46265 7.18824 35334 ft 441 kts 154°
2026-05-01 12:29 57.38143 7.27288 35338 ft 452 kts 154°
2026-05-01 12:29 57.29892 7.35867 35337 ft 454 kts 154°
2026-05-01 12:30 57.21632 7.44425 35345 ft 454 kts 154°
2026-05-01 12:31 57.16121 7.50096 35344 ft 454 kts 154°
2026-05-01 12:31 57.10599 7.55740 35344 ft 454 kts 154°
2026-05-01 12:32 57.05075 7.61367 35349 ft 454 kts 153°
2026-05-01 12:32 56.96946 7.70363 35347 ft 456 kts 150°
2026-05-01 12:33 56.91557 7.76528 35355 ft 457 kts 150°
2026-05-01 12:33 56.86179 7.82546 35345 ft 456 kts 150°
2026-05-01 12:34 56.80734 7.88529 35358 ft 456 kts 151°
2026-05-01 12:34 56.75293 7.94498 35358 ft 456 kts 150°
2026-05-01 12:35 56.69854 8.00475 35361 ft 457 kts 151°
2026-05-01 12:35 56.64411 8.06429 35362 ft 457 kts 151°
2026-05-01 12:36 56.58958 8.12381 35362 ft 456 kts 151°
2026-05-01 12:36 56.53507 8.18310 35367 ft 457 kts 150°
2026-05-01 12:37 56.48049 8.24217 35366 ft 457 kts 151°
2026-05-01 12:37 56.42577 8.30113 35366 ft 458 kts 151°
2026-05-01 12:38 56.37102 8.36011 35364 ft 458 kts 151°
2026-05-01 12:38 56.31664 8.41846 35369 ft 458 kts 152°
2026-05-01 12:39 56.26184 8.47690 35369 ft 458 kts 151°
2026-05-01 12:39 56.20697 8.53539 35366 ft 458 kts 151°
2026-05-01 12:40 56.15217 8.59371 35366 ft 458 kts 151°
2026-05-01 12:40 56.09731 8.65165 35372 ft 458 kts 151°
2026-05-01 12:41 56.04237 8.70955 35369 ft 458 kts 151°
2026-05-01 12:41 55.98750 8.76728 35372 ft 458 kts 151°
2026-05-01 12:42 55.93266 8.82480 35375 ft 457 kts 151°
2026-05-01 12:42 55.87781 8.88213 35378 ft 457 kts 151°
2026-05-01 12:43 55.82292 8.93906 35381 ft 457 kts 151°
2026-05-01 12:43 55.76799 8.99602 35382 ft 457 kts 151°
2026-05-01 12:44 55.71349 9.05228 35382 ft 456 kts 151°
2026-05-01 12:45 55.60395 9.16502 35382 ft 455 kts 151°
2026-05-01 12:45 55.54908 9.22110 35381 ft 455 kts 151°
2026-05-01 12:46 55.49429 9.27699 35410 ft 455 kts 151°
2026-05-01 12:46 55.43946 9.33278 35409 ft 455 kts 151°
2026-05-01 12:47 55.38464 9.38843 35379 ft 454 kts 150°
2026-05-01 12:47 55.32989 9.44389 35381 ft 454 kts 150°
2026-05-01 12:48 55.27519 9.49902 35383 ft 453 kts 150°
2026-05-01 12:48 55.22043 9.55383 35391 ft 453 kts 150°
2026-05-01 12:49 55.16602 9.60820 35395 ft 451 kts 150°
2026-05-01 12:49 55.11247 9.66171 35255 ft 439 kts 150°
2026-05-01 12:50 55.08569 9.68844 34629 ft 437 kts 150°
2026-05-01 12:50 55.05963 9.71433 33893 ft 437 kts 150°
2026-05-01 12:50 55.03319 9.74054 33195 ft 435 kts 150°
2026-05-01 12:50 55.00700 9.76644 32629 ft 431 kts 150°
2026-05-01 12:51 54.98108 9.79203 32080 ft 426 kts 150°
2026-05-01 12:51 54.95539 9.81736 31530 ft 423 kts 150°
2026-05-01 12:51 54.90458 9.86744 30531 ft 416 kts 150°
2026-05-01 12:52 54.87943 9.89219 30380 ft 415 kts 150°
2026-05-01 12:52 54.82777 9.93672 30392 ft 416 kts 162°
2026-05-01 12:52 54.79946 9.94731 30318 ft 415 kts 173°
2026-05-01 12:53 54.74253 9.94055 29053 ft 412 kts 191°
2026-05-01 12:53 54.71431 9.93114 28234 ft 414 kts 191°
2026-05-01 12:53 54.68592 9.92172 27435 ft 416 kts 190°
2026-05-01 12:54 54.65747 9.91236 26665 ft 417 kts 190°
2026-05-01 12:54 54.60018 9.89529 25171 ft 417 kts 187°
2026-05-01 12:54 54.57151 9.88898 24469 ft 414 kts 186°
2026-05-01 12:55 54.51537 9.87863 23529 ft 393 kts 186°
2026-05-01 12:55 54.48881 9.87377 23159 ft 379 kts 186°
2026-05-01 12:55 54.46289 9.86879 22816 ft 372 kts 186°
2026-05-01 12:56 54.43732 9.86366 22374 ft 368 kts 187°
2026-05-01 12:56 54.42018 9.86011 22066 ft 366 kts 187°
2026-05-01 12:56 54.38687 9.85310 21464 ft 363 kts 187°
2026-05-01 12:56 54.36190 9.84786 21007 ft 360 kts 187°
2026-05-01 12:57 54.33711 9.84272 20552 ft 358 kts 187°
2026-05-01 12:57 54.28801 9.83257 19685 ft 353 kts 187°
2026-05-01 12:57 54.27189 9.82924 19397 ft 352 kts 187°
2026-05-01 12:58 54.24768 9.82426 19001 ft 349 kts 186°
2026-05-01 12:58 54.22328 9.81927 18580 ft 347 kts 186°
2026-05-01 12:58 54.19935 9.81441 18130 ft 345 kts 186°
2026-05-01 12:59 54.15281 9.80494 17729 ft 327 kts 186°
2026-05-01 12:59 54.13088 9.80044 17566 ft 317 kts 186°
2026-05-01 12:59 54.08782 9.79160 16928 ft 310 kts 186°
2026-05-01 13:00 54.04502 9.78283 16264 ft 306 kts 186°
2026-05-01 13:00 54.02395 9.77853 15943 ft 303 kts 186°
2026-05-01 13:01 53.98243 9.77013 15152 ft 297 kts 186°
2026-05-01 13:01 53.96198 9.76599 14643 ft 294 kts 186°
2026-05-01 13:01 53.92361 9.75823 14268 ft 264 kts 185°
2026-05-01 13:02 53.90489 9.75944 13809 ft 274 kts 165°
2026-05-01 13:07 53.94535 9.92318 3260 ft 226 kts 234°
2026-05-01 13:07 53.93547 9.90231 3035 ft 224 kts 225°
2026-05-01 13:07 53.92484 9.88283 3000 ft 225 kts 224°
2026-05-01 13:08 53.91423 9.86366 2995 ft 217 kts 224°
2026-05-01 13:08 53.90414 9.84556 2989 ft 205 kts 223°
2026-05-01 13:08 53.89285 9.83316 2992 ft 187 kts 194°
2026-05-01 13:08 53.88047 9.82904 2996 ft 176 kts 185°
2026-05-01 13:09 53.86838 9.82652 3037 ft 174 kts 185°
2026-05-01 13:09 53.85636 9.82437 3028 ft 173 kts 185°
2026-05-01 13:09 53.84434 9.82236 3003 ft 173 kts 184°
2026-05-01 13:09 53.83244 9.82209 2999 ft 170 kts 166°
2026-05-01 13:10 53.82158 9.82974 3014 ft 171 kts 153°
2026-05-01 13:10 53.81108 9.83896 2997 ft 170 kts 152°
2026-05-01 13:10 53.80059 9.84814 3001 ft 168 kts 152°
2026-05-01 13:10 53.79021 9.85720 2954 ft 169 kts 152°
2026-05-01 13:11 53.77992 9.86617 2799 ft 166 kts 152°
2026-05-01 13:11 53.76947 9.87526 2591 ft 171 kts 151°
2026-05-01 13:11 53.75898 9.88441 2376 ft 166 kts 152°
2026-05-01 13:11 53.74883 9.89323 2152 ft 164 kts 152°
2026-05-01 13:12 53.73896 9.90182 1949 ft 160 kts 152°
2026-05-01 13:12 53.72957 9.90997 1747 ft 143 kts 152°
2026-05-01 13:12 53.72099 9.91744 1555 ft 136 kts 153°
2026-05-01 13:12 53.71271 9.92463 1377 ft 135 kts 153°
2026-05-01 13:13 53.70439 9.93185 1203 ft 134 kts 153°
2026-05-01 13:13 53.69610 9.93905 1022 ft 135 kts 152°
2026-05-01 13:13 53.68772 9.94644 847 ft 136 kts 152°
2026-05-01 13:13 53.67949 9.95377 679 ft 134 kts 152°
2026-05-01 13:14 53.67121 9.96056 475 ft 134 kts 153°
2026-05-01 13:14 53.66285 9.96774 326 ft 134 kts 152°
2026-05-01 13:14 53.65464 9.97512 115 ft 134 kts 153°
2026-05-01 13:14 53.64695 9.98171 54 ft 110 kts 154°
2026-05-01 13:15 53.64168 9.98622 51 ft 60 kts 153°
2026-05-01 13:15 53.63965 9.98883 50 ft 24 kts 128°
2026-05-01 13:15 53.63888 9.99059 50 ft 13 kts 126°
2026-05-01 13:15 53.63859 9.99125 50 ft 6 kts 126°
2026-05-01 13:16 53.63819 9.99221 50 ft 12 kts 125°
2026-05-01 13:16 53.63767 9.99341 51 ft 14 kts 126°
2026-05-01 13:16 53.63707 9.99480 51 ft 16 kts 127°
2026-05-01 13:17 53.63578 9.99780 49 ft 11 kts 126°
2026-05-01 13:17 53.63522 9.99909 48 ft 16 kts 126°
2026-05-01 13:18 53.63419 10.00146 51 ft 11 kts 140°
2026-05-01 13:18 53.63336 10.00167 51 ft 13 kts 175°
2026-05-01 13:18 53.63238 10.00178 47 ft 15 kts 176°
2026-05-01 13:18 53.63128 10.00191 51 ft 13 kts 176°
2026-05-01 13:19 53.63043 10.00161 50 ft 13 kts 221°
2026-05-01 13:19 53.62968 10.00076 50 ft 13 kts 205°
2026-05-01 13:19 53.62897 10.00199 51 ft 7 kts 122°
2026-05-01 13:20 53.62895 10.00205 51 ft 0 kts 122°